Elkins, WV

6:51 PM EST on November 22, 2019 (GMT -0500)
Elkins-Randolph County

Weather History for KEKN - September, 2019

Change the Weather History Date:

Friday, September 20, 2019

  Actual Average Record
Temperature  
Mean Temperature 64 °F 61 °F  
Max Temperature 82 °F 72 °F 89 °F (1908)
Min Temperature 44 °F 49 °F 31 °F (1956)
Degree Days  
Heating Degree Days 2 5  
Month to date heating degree days 4 58  
Since 1 July heating degree days 11 88  
Cooling Degree Days 0 1  
Month to date cooling degree days 101 38  
Year to date cooling degree days 772 464  
Growing Degree Days 14 (Base 50)    
Moisture  
Dew Point 51 °F    
Average Humidity 70    
Maximum Humidity 92    
Minimum Humidity 40    
Precipitation  
Precipitation 0.00 in 0.12 in 1.51 in (1933)
Month to date precipitation T 2.46  
Year to date precipitation 37.71 35.27  
Snow  
Snow 0.00 in 0.00 in 0.00 in (2016)
Month to date snowfall 0.0 0.0  
Since 1 September snowfall 0.0 0.0  
Snow Depth 0.00 in    
Sea Level Pressure  
Sea Level Pressure 30.28 in    
Wind  
Wind Speed 2 mph ()    
Max Wind Speed 8 mph    
Max Gust Speed 11 mph    
Visibility 9.8 miles    
Events      
T = Trace of Precipitation, MM = Missing Value Source: Averaged Metar Reports

Daily Weather History Graph

Daily Weather History Graph

Search for Another Location

Airport or City:

Astronomy

Sep. 20, 2019 Rise Set
Actual Time 7:05 AM EDT 7:20 PM EDT
Civil Twilight 6:38 AM EDT 7:46 PM EDT
Nautical Twilight 6:07 AM EDT 8:17 PM EDT
Astronomical Twilight 5:35 AM EDT 8:49 PM EDT
Moon 11:11 PM EDT (9/20) 1:05 PM EDT (9/20)
Length of Visible Light 13h 08m
Length of Day
12h 14m
Waning Gibbous, 65% of the Moon is Illuminated
Sep 20
Waning Gibbous
Sep 21
Last Quarter
Sep 28
New
Oct 5
First Quarter
Oct 13
Full

Hourly Weather History & Observations

Time (EDT) Temp. Heat Index Dew Point Humidity Pressure Visibility Wind Dir Wind Speed Gust Speed Precip Events Conditions
12:51 AM 55.0 °F - 46.9 °F 74% 30.26 in 10.0 mi SE 6.9 mph - N/A   Clear
1:51 AM 52.0 °F - 46.0 °F 80% 30.27 in 10.0 mi ESE 3.5 mph - N/A   Clear
2:51 AM 48.9 °F - 44.1 °F 83% 30.27 in 10.0 mi Calm Calm - N/A   Clear
3:51 AM 46.9 °F - 43.0 °F 86% 30.27 in 10.0 mi Calm Calm - N/A   Clear
4:51 AM 46.0 °F - 42.1 °F 86% 30.29 in 10.0 mi Calm Calm - N/A   Clear
5:51 AM 45.0 °F - 42.1 °F 90% 30.30 in 10.0 mi Calm Calm - N/A   Clear
6:51 AM 44.1 °F - 39.9 °F 85% 30.32 in 10.0 mi Calm Calm - N/A   Clear
7:35 AM 44.1 °F - 41.0 °F 89% 30.32 in 10.0 mi Calm Calm - N/A   Scattered Clouds
7:51 AM 45.0 °F - 42.1 °F 90% 30.35 in 9.0 mi Calm Calm - N/A   Partly Cloudy
8:51 AM 53.1 °F - 46.9 °F 80% 30.35 in 10.0 mi Calm Calm - N/A   Clear
9:51 AM 60.1 °F - 48.9 °F 67% 30.33 in 10.0 mi Calm Calm - N/A   Clear
10:51 AM 66.9 °F - 50.0 °F 54% 30.32 in 10.0 mi Calm Calm - N/A   Clear
11:51 AM 73.9 °F - 52.0 °F 46% 30.29 in 10.0 mi Calm Calm - N/A   Clear
12:51 PM 78.1 °F - 55.0 °F 45% 30.26 in 10.0 mi Variable 3.5 mph - N/A   Clear
1:51 PM 79.0 °F - 55.9 °F 45% 30.24 in 10.0 mi Calm Calm - N/A   Partly Cloudy
2:51 PM 82.0 °F 81.6 °F 55.9 °F 41% 30.22 in 10.0 mi Variable 4.6 mph - N/A   Clear
3:51 PM 82.0 °F 81.6 °F 55.9 °F 41% 30.22 in 10.0 mi Variable 6.9 mph - N/A   Mostly Cloudy
4:51 PM 81.0 °F 80.8 °F 55.9 °F 42% 30.22 in 10.0 mi Variable 3.5 mph - N/A   Clear
5:51 PM 81.0 °F 81.0 °F 57.0 °F 44% 30.23 in 10.0 mi NW 4.6 mph - N/A   Clear
6:51 PM 75.9 °F - 60.1 °F 58% 30.24 in 10.0 mi West 3.5 mph - N/A   Clear
7:51 PM 66.9 °F - 60.1 °F 79% 30.25 in 10.0 mi Calm Calm - N/A   Clear
8:51 PM 64.9 °F - 59.0 °F 81% 30.26 in 10.0 mi Calm Calm - N/A   Clear
9:51 PM 63.0 °F - 57.9 °F 84% 30.27 in 10.0 mi Calm Calm - N/A   Clear
10:51 PM 60.1 °F - 55.9 °F 86% 30.28 in 8.0 mi Calm Calm - N/A   Clear
11:51 PM 59.0 °F - 55.0 °F 87% 30.27 in 7.0 mi Calm Calm - N/A   Clear